Location: Peralejo
(40.5415°N, 4.1259°W)
Time: 02:04:03
(UTC+00:00)

ERS-1 Rocket - Pass Details

Date: 18 April 2024
Orbit: 751 x 754 km, 98.3° (Epoch: 18 May)

Event Time Altitude Azimuth Distance (km) Brightness Sun altitude
Exits shadow 21:31:19 84° 154° (SSE) 761 2.8 -25.8°
Maximum altitude 21:31:29 89° 80° (E) 757 2.8 -25.8°
Drops below altitude 10° 21:36:32 10° 347° (NNW) 2,282 6.2 -26.5°
Sets 21:38:50 0° 348° (NNW) 3,212 7.1 -26.8°
